STARLINK-1542, 46073

Orbit data source: Space-Track

STARLINK-1542, 46073 is a payload satellite owned by SpaceX/Seattle (US) in LEO that was launched on Fri, 07 Aug 2020 UTC via an FALCON 9 launch vehicle from the Air Force Eastern Test Range (AFETR). Payload-class satellites include a variety of spacecraft equipped with specific instruments for various scientific and technological missions. These include communications satellites like Starlink; space stations such as the ISS; scientific satellites like the Hubble; Earth observation satellites from companies like Planet Labs, Umbra, and HawkEye 360; GPS; miniature CubeSats for education and research; and military/defense satellites.

Loading next visibility...
Identifier
46073, 2020-055AY
Orbit
LEO
Country
Flag of USUS
Related business
Manufacturer
SpaceX/Seattle
Mission
Operational Commercial Communications
Bus & Motor
STARLINK, Unknown motor
Mass
260 kg wet, ~248 kg dry
Launch date (UTC)
2020-08-07 (6 years ago)
Launch vehicle
FALCON 9
Launch site
Air Force Eastern Test Range (AFETR)
Object type
Payload
Rocket body
Debris
Shape & HBR
Box + 1 Pan, 10.1 m
Radar Cross Section
13.562 m², Large (>1 m²)

Expand to show TLE details & history
Last TLE update: 19 hours ago

TLE from 19 hours ago
0 STARLINK-1542
1 46073U 20055AY  26095.08245558  .00008140  00000-0  56470-3 0  9999
2 46073  53.0526 338.1373 0001332  96.8794 263.2347 15.06401029313285
Epoch: 2026-04-05T01:58Z
TLE epoch observation values (Epoch: 2026-04-05T01:58:44.162Z)
Latitude
0.00004°
Longitude
115.06033°
Altitude
548.196 km
Speed
7.589 km/s
True Right ascension
22h 32m 32s
True Declination
0° 00' 00"
Sunlit
Object was in daylight at epoch
Visualization orbit readout
Latitude
Unknown
Longitude
Unknown
Altitude
Unknown
Speed
Unknown
Apparent Right ascension
Unknown
Apparent Declination
Unknown
Sunlit
N/A
Visualization observer readout
Local Sidereal Time
02:48:25
Azimuth
Unknown
Elevation
Unknown
Doppler factor
Unknown
Orbital elements
Apogee altitude
548.402 km
Perigee altitude
546.557 km
Semi-major axis
6,925.616 km
Eccentricity
0.00013
Inclination
53.0526°
RAAN
338.1373°
Arg. of periapsis
96.8794°
True anomaly
263.21954°
Mean anomaly
263.2347°
Eccentric anomaly
263.22712°
Mean motion
3.76578 °/min
Orbital period
95.6 mins
BSTAR
0.0005647
Loading maneuver chart data...
Computing Atmospheric mass density...
Loading historical data...
Loading historical data...
Loading historical data...
Loading historical data...
Loading historical data...
Loading historical data...
Loading historical data...

Documentation

Showing up to 5 results
|